Find Starlink 35695

NORAD ID: 66558 Int'l Des: 2025-268 Owner: SPXS Country: US Constellation: starlink operational
LEOCIRCULAR

リアルタイム位置

3D地球を読み込み中...

Starlink 35695について

説明を読み込み中...

次回通過

Passes for default location (London). Set your location on the main map for personalized predictions.

高度履歴

Loading altitude history...

軌道要素

1 66558U 25268B 26107.05976862 .00011813 00000-0 43794-3 0 9996
2 66558 42.9982 130.7411 0001625 239.3279 120.7413 15.27593481 23820
Epoch: Apr 17, 2026 • Age: 16 hours

現在のステータス

高度 481.8 km
速度 7.63 km/s
衛星直下点 10.23°N, 177.78°W
打ち上げ日 Nov 21, 2025
運用期間 0.4 years
タイプ internet

技術仕様

分類 Payload
質量 575.00 kg
乾燥質量 530.00 kg
総質量 575.00 kg
長さ 0.30 m
直径 4.10 m
スパン 29.00 m
形状 Box + pan
製造者 SPXS
バスタイプ Starlink V2MO
フェーズステータス In Orbit
所有者/国 SPXS/US

Most Searched